Time,TemperatureF,DewpointF,PressureIn,WindDirection,WindDirectionDegrees,WindSpeedMPH,WindSpeedGustMPH,Humidity,HourlyPrecipIn,Conditions,Clouds,dailyrainin,SoftwareType,DateUTC
2013-10-12 00:00:00,74.3,73.7,29.82,SSE,157,1.6,-999.0,98,-99.99,,,0.00,Acu-Link.com,2013-10-12 05:00:00,
2013-10-12 00:16:00,74.3,73.7,29.82,SSE,157,0.0,-999.0,98,-99.99,,,0.00,Acu-Link.com,2013-10-12 05:16:00,
2013-10-12 00:31:00,74.1,73.5,29.82,SSE,157,2.2,-999.0,98,-99.99,,,0.00,Acu-Link.com,2013-10-12 05:31:00,
2013-10-12 00:46:00,73.9,73.3,29.82,South,180,2.2,-999.0,98,-99.99,,,0.00,Acu-Link.com,2013-10-12 05:46:00,
2013-10-12 01:01:00,73.8,73.2,29.82,SSE,157,1.6,-999.0,98,-99.99,,,0.00,Acu-Link.com,2013-10-12 06:01:00,
2013-10-12 01:17:00,73.4,72.8,29.82,SSE,157,0.0,-999.0,98,-99.99,,,0.00,Acu-Link.com,2013-10-12 06:17:00,
2013-10-12 01:33:00,73.4,72.8,29.82,SSE,157,1.6,-999.0,98,-99.99,,,0.00,Acu-Link.com,2013-10-12 06:33:00,
2013-10-12 01:48:00,72.9,72.3,29.82,SSE,157,1.1,-999.0,98,-99.99,,,0.00,Acu-Link.com,2013-10-12 06:48:00,
2013-10-12 02:04:00,72.7,72.1,29.82,SE,135,1.6,-999.0,98,-99.99,,,0.00,Acu-Link.com,2013-10-12 07:04:00,
2013-10-12 02:20:00,72.5,71.9,29.82,South,180,1.6,-999.0,98,-99.99,,,0.00,Acu-Link.com,2013-10-12 07:20:00,
2013-10-12 02:36:00,72.3,71.7,29.83,SSE,157,0.0,-999.0,98,-99.99,,,0.00,Acu-Link.com,2013-10-12 07:36:00,
2013-10-12 02:51:00,72.3,71.7,29.83,SE,135,1.6,-999.0,98,-99.99,,,0.00,Acu-Link.com,2013-10-12 07:51:00,
2013-10-12 03:06:00,72.3,71.7,29.83,SSE,157,0.0,-999.0,98,-99.99,,,0.00,Acu-Link.com,2013-10-12 08:06:00,
2013-10-12 03:21:00,72.3,71.7,29.83,SSE,157,0.0,-999.0,98,-99.99,,,0.00,Acu-Link.com,2013-10-12 08:21:00,
2013-10-12 03:37:00,72.3,71.7,29.83,South,180,3.1,-999.0,98,-99.99,,,0.00,Acu-Link.com,2013-10-12 08:37:00,
2013-10-12 03:53:00,72.0,71.4,29.83,ESE,112,0.0,-999.0,98,-99.99,,,0.00,Acu-Link.com,2013-10-12 08:53:00,
2013-10-12 04:08:00,71.6,71.0,29.83,ESE,112,0.0,-999.0,98,-99.99,,,0.00,Acu-Link.com,2013-10-12 09:08:00,
2013-10-12 04:23:00,71.4,70.8,29.83,ESE,112,0.0,-999.0,98,-99.99,,,0.00,Acu-Link.com,2013-10-12 09:23:00,
2013-10-12 04:38:00,71.2,70.6,29.84,ESE,112,0.0,-999.0,98,-99.99,,,0.00,Acu-Link.com,2013-10-12 09:38:00,
2013-10-12 04:53:00,71.6,71.3,29.84,SSE,157,0.0,-999.0,99,-99.99,,,0.00,Acu-Link.com,2013-10-12 09:53:00,
2013-10-12 05:08:00,71.6,71.3,29.85,SE,135,0.0,-999.0,99,-99.99,,,0.00,Acu-Link.com,2013-10-12 10:08:00,
2013-10-12 05:24:00,71.8,71.5,29.85,SSE,157,0.0,-999.0,99,-99.99,,,0.00,Acu-Link.com,2013-10-12 10:24:00,
2013-10-12 05:39:00,71.6,71.3,29.86,SSE,157,0.0,-999.0,99,-99.99,,,0.00,Acu-Link.com,2013-10-12 10:39:00,
2013-10-12 05:54:00,71.6,71.3,29.87,South,180,0.0,-999.0,99,-99.99,,,0.00,Acu-Link.com,2013-10-12 10:54:00,
2013-10-12 06:09:00,71.4,71.1,29.87,SSE,157,0.0,-999.0,99,-99.99,,,0.00,Acu-Link.com,2013-10-12 11:09:00,
2013-10-12 06:25:00,71.6,71.3,29.87,SSE,157,0.0,-999.0,99,-99.99,,,0.00,Acu-Link.com,2013-10-12 11:25:00,
2013-10-12 06:40:00,71.6,71.3,29.88,South,180,0.0,-999.0,99,-99.99,,,0.00,Acu-Link.com,2013-10-12 11:40:00,
2013-10-12 06:55:00,71.2,70.9,29.87,SSE,157,0.0,-999.0,99,-99.99,,,0.00,Acu-Link.com,2013-10-12 11:55:00,
2013-10-12 07:10:00,71.1,70.8,29.88,South,180,0.0,-999.0,99,-99.99,,,0.00,Acu-Link.com,2013-10-12 12:10:00,
2013-10-12 07:25:00,71.1,70.8,29.89,SSE,157,0.0,-999.0,99,-99.99,,,0.00,Acu-Link.com,2013-10-12 12:25:00,
2013-10-12 07:41:00,71.1,70.8,29.90,SSE,157,0.0,-999.0,99,-99.99,,,0.00,Acu-Link.com,2013-10-12 12:41:00,
2013-10-12 07:56:00,71.1,70.8,29.90,SSE,157,0.0,-999.0,99,-99.99,,,0.00,Acu-Link.com,2013-10-12 12:56:00,
2013-10-12 08:11:00,71.2,70.9,29.90,SSE,157,0.0,-999.0,99,-99.99,,,0.00,Acu-Link.com,2013-10-12 13:11:00,
2013-10-12 08:26:00,71.6,71.3,29.91,SSE,157,0.0,-999.0,99,-99.99,,,0.00,Acu-Link.com,2013-10-12 13:26:00,
2013-10-12 08:41:00,72.7,72.4,29.91,SSE,157,0.0,-999.0,99,-99.99,,,0.00,Acu-Link.com,2013-10-12 13:41:00,
2013-10-12 08:57:00,73.8,73.5,29.92,South,180,0.0,-999.0,99,-99.99,,,0.00,Acu-Link.com,2013-10-12 13:57:00,
2013-10-12 09:12:00,73.9,73.6,29.92,SSE,157,4.7,-999.0,99,-99.99,,,0.00,Acu-Link.com,2013-10-12 14:12:00,
2013-10-12 09:27:00,74.8,74.5,29.93,SSW,202,5.1,-999.0,99,-99.99,,,0.00,Acu-Link.com,2013-10-12 14:27:00,
2013-10-12 09:42:00,75.9,75.3,29.94,South,180,4.3,-999.0,98,-99.99,,,0.00,Acu-Link.com,2013-10-12 14:42:00,
2013-10-12 09:57:00,77.4,76.7,29.94,South,180,3.8,-999.0,98,-99.99,,,0.00,Acu-Link.com,2013-10-12 14:57:00,
2013-10-12 10:13:00,78.3,77.6,29.94,SSW,202,2.7,-999.0,98,-99.99,,,0.00,Acu-Link.com,2013-10-12 15:13:00,
2013-10-12 10:28:00,78.8,78.2,29.94,South,180,1.6,-999.0,98,-99.99,,,0.00,Acu-Link.com,2013-10-12 15:28:00,
2013-10-12 10:43:00,79.3,78.7,29.94,SW,225,1.1,-999.0,98,-99.99,,,0.00,Acu-Link.com,2013-10-12 15:43:00,
2013-10-12 10:58:00,79.0,78.4,29.94,SSW,202,1.6,-999.0,98,-99.99,,,0.00,Acu-Link.com,2013-10-12 15:58:00,
2013-10-12 11:14:00,79.2,78.5,29.95,West,270,0.0,-999.0,98,-99.99,,,0.00,Acu-Link.com,2013-10-12 16:14:00,
2013-10-12 11:29:00,78.1,77.5,29.95,SSW,202,0.0,-999.0,98,-99.99,,,0.00,Acu-Link.com,2013-10-12 16:29:00,
2013-10-12 11:44:00,77.2,76.6,29.95,NE,45,0.0,-999.0,98,-99.99,,,0.00,Acu-Link.com,2013-10-12 16:44:00,
2013-10-12 11:59:00,81.5,80.9,29.95,NNE,22,4.7,-999.0,98,-99.99,,,0.00,Acu-Link.com,2013-10-12 16:59:00,
2013-10-12 12:14:00,83.7,83.0,29.95,SSW,202,1.6,-999.0,98,-99.99,,,0.00,Acu-Link.com,2013-10-12 17:14:00,
2013-10-12 12:30:00,85.3,84.6,29.93,ESE,112,0.0,-999.0,98,-99.99,,,0.00,Acu-Link.com,2013-10-12 17:30:00,
2013-10-12 12:45:00,82.0,81.4,29.93,NE,45,3.1,-999.0,98,-99.99,,,0.00,Acu-Link.com,2013-10-12 17:45:00,
2013-10-12 13:00:00,84.7,84.1,29.93,ESE,112,2.7,-999.0,98,-99.99,,,0.00,Acu-Link.com,2013-10-12 18:00:00,
2013-10-12 13:15:00,82.0,81.4,29.93,SE,135,4.3,-999.0,98,-99.99,,,0.00,Acu-Link.com,2013-10-12 18:15:00,
2013-10-12 13:30:00,84.4,83.8,29.92,ESE,112,3.1,-999.0,98,-99.99,,,0.00,Acu-Link.com,2013-10-12 18:30:00,
2013-10-12 13:46:00,84.4,83.8,29.91,NE,45,3.1,-999.0,98,-99.99,,,0.00,Acu-Link.com,2013-10-12 18:46:00,
2013-10-12 14:01:00,84.9,82.7,29.91,East,90,3.1,-999.0,93,-99.99,,,0.00,Acu-Link.com,2013-10-12 19:01:00,
2013-10-12 14:16:00,88.2,81.6,29.89,South,180,2.2,-999.0,81,-99.99,,,0.00,Acu-Link.com,2013-10-12 19:16:00,
2013-10-12 14:31:00,86.5,85.6,29.89,West,270,1.6,-999.0,97,-99.99,,,0.00,Acu-Link.com,2013-10-12 19:31:00,
2013-10-12 14:46:00,89.2,85.9,29.88,ESE,112,4.3,-999.0,90,-99.99,,,0.00,Acu-Link.com,2013-10-12 19:46:00,
2013-10-12 15:02:00,90.0,84.5,29.88,SSW,202,1.6,-999.0,84,-99.99,,,0.00,Acu-Link.com,2013-10-12 20:02:00,
2013-10-12 15:17:00,87.8,85.8,29.87,NE,45,4.3,-999.0,94,-99.99,,,0.00,Acu-Link.com,2013-10-12 20:17:00,
2013-10-12 15:32:00,85.6,85.0,29.87,NE,45,5.8,-999.0,98,-99.99,,,0.00,Acu-Link.com,2013-10-12 20:32:00,
2013-10-12 15:47:00,81.0,80.3,29.87,North,0,2.2,-999.0,98,-99.99,,,0.00,Acu-Link.com,2013-10-12 20:47:00,
2013-10-12 16:02:00,85.8,85.2,29.87,NE,45,5.8,-999.0,98,-99.99,,,0.01,Acu-Link.com,2013-10-12 21:02:00,
2013-10-12 16:18:00,86.5,85.9,29.87,ENE,67,6.7,-999.0,98,-99.99,,,0.01,Acu-Link.com,2013-10-12 21:18:00,
2013-10-12 16:33:00,87.6,87.0,29.87,NNW,337,1.1,-999.0,98,-99.99,,,0.01,Acu-Link.com,2013-10-12 21:33:00,
2013-10-12 16:48:00,89.6,87.3,29.87,ENE,67,1.6,-999.0,93,-99.99,,,0.01,Acu-Link.com,2013-10-12 21:48:00,
2013-10-12 17:03:00,87.3,86.3,29.87,East,90,0.0,-999.0,97,-99.99,,,0.01,Acu-Link.com,2013-10-12 22:03:00,
2013-10-12 17:19:00,84.9,84.3,29.87,West,270,2.2,-999.0,98,-99.99,,,0.01,Acu-Link.com,2013-10-12 22:19:00,
2013-10-12 17:34:00,83.5,82.9,29.87,North,0,0.0,-999.0,98,-99.99,,,0.01,Acu-Link.com,2013-10-12 22:34:00,
2013-10-12 17:49:00,83.8,83.2,29.87,South,180,0.0,-999.0,98,-99.99,,,0.01,Acu-Link.com,2013-10-12 22:49:00,
2013-10-12 18:04:00,82.2,81.6,29.88,West,270,0.0,-999.0,98,-99.99,,,0.01,Acu-Link.com,2013-10-12 23:04:00,
2013-10-12 18:19:00,81.1,80.5,29.88,ENE,67,0.0,-999.0,98,-99.99,,,0.01,Acu-Link.com,2013-10-12 23:19:00,
2013-10-12 18:35:00,80.6,80.0,29.88,ENE,67,0.0,-999.0,98,-99.99,,,0.01,Acu-Link.com,2013-10-12 23:35:00,
2013-10-12 18:50:00,79.0,78.4,29.90,South,180,2.7,-999.0,98,-99.99,,,0.01,Acu-Link.com,2013-10-12 23:50:00,
2013-10-12 19:05:00,77.4,76.7,29.90,SSE,157,2.7,-999.0,98,-99.99,,,0.01,Acu-Link.com,2013-10-13 00:05:00,
2013-10-12 19:20:00,76.5,75.9,29.90,SSW,202,0.0,-999.0,98,-99.99,,,0.01,Acu-Link.com,2013-10-13 00:20:00,
2013-10-12 19:35:00,75.7,75.1,29.89,SSE,157,0.0,-999.0,98,-99.99,,,0.01,Acu-Link.com,2013-10-13 00:35:00,
2013-10-12 19:51:00,74.7,74.1,29.90,ESE,112,0.0,-999.0,98,-99.99,,,0.01,Acu-Link.com,2013-10-13 00:51:00,
2013-10-12 20:06:00,74.3,73.7,29.90,West,270,0.0,-999.0,98,-99.99,,,0.01,Acu-Link.com,2013-10-13 01:06:00,
2013-10-12 20:21:00,74.1,73.5,29.92,NE,45,2.2,-999.0,98,-99.99,,,0.01,Acu-Link.com,2013-10-13 01:21:00,
2013-10-12 20:36:00,73.4,72.8,29.92,SE,135,0.0,-999.0,98,-99.99,,,0.01,Acu-Link.com,2013-10-13 01:36:00,
2013-10-12 20:51:00,73.0,72.4,29.93,NNW,337,0.0,-999.0,98,-99.99,,,0.01,Acu-Link.com,2013-10-13 01:51:00,
2013-10-12 21:07:00,72.9,72.3,29.93,North,0,2.2,-999.0,98,-99.99,,,0.01,Acu-Link.com,2013-10-13 02:07:00,
2013-10-12 21:22:00,72.7,72.1,29.93,SSW,202,0.0,-999.0,98,-99.99,,,0.01,Acu-Link.com,2013-10-13 02:22:00,
2013-10-12 21:37:00,72.9,72.3,29.93,North,0,2.7,-999.0,98,-99.99,,,0.01,Acu-Link.com,2013-10-13 02:37:00,
2013-10-12 21:52:00,74.5,73.9,29.95,SE,135,1.6,-999.0,98,-99.99,,,0.01,Acu-Link.com,2013-10-13 02:52:00,
2013-10-12 22:08:00,74.3,73.7,29.96,ESE,112,2.2,-999.0,98,-99.99,,,0.01,Acu-Link.com,2013-10-13 03:08:00,
2013-10-12 22:23:00,73.9,73.3,29.95,NNW,337,3.1,-999.0,98,-99.99,,,0.01,Acu-Link.com,2013-10-13 03:23:00,
2013-10-12 22:38:00,73.2,72.6,29.96,NE,45,1.1,-999.0,98,-99.99,,,0.01,Acu-Link.com,2013-10-13 03:38:00,
2013-10-12 22:53:00,73.0,72.4,29.96,SE,135,0.0,-999.0,98,-99.99,,,0.01,Acu-Link.com,2013-10-13 03:53:00,
2013-10-12 23:08:00,72.7,72.1,29.96,ESE,112,0.0,-999.0,98,-99.99,,,0.01,Acu-Link.com,2013-10-13 04:08:00,
2013-10-12 23:24:00,72.7,72.1,29.95,SE,135,2.2,-999.0,98,-99.99,,,0.01,Acu-Link.com,2013-10-13 04:24:00,
2013-10-12 23:39:00,72.7,72.1,30.01,SSW,202,2.7,-999.0,98,-99.99,,,0.01,Acu-Link.com,2013-10-13 04:39:00,
2013-10-12 23:54:00,72.5,71.9,29.99,South,180,1.6,-999.0,98,-99.99,,,0.01,Acu-Link.com,2013-10-13 04:54:00,